Regional Weather Roundup
Issued by NWS

Home | Current Version | Previous Version | Text Only | Print | Product List | Glossary On
Versions: 1 2 3 4 5 6 7 8 9 10 11 12 13 14 15 16 17 18 19 20 21 22 23 24 25 26 27 28 29 30 31 32 33 34 35 36 37 38 39 40 41 42 43 44 45 46 47 48 49 50
000
ASUS43 KMKX 200900
RWRWI

WISCONSIN REGIONAL WEATHER ROUNDUP
NATIONAL WEATHER SERVICE MILWAUKEE/SULLIVAN WI
400 AM CDT FRI OCT 20 2017

NOTE: "FAIR" INDICATES FEW OR NO CLOUDS BELOW 12,000 FEET WITH NO
SIGNIFICANT WEATHER AND/OR OBSTRUCTIONS TO VISIBILITY.

WIZ001-002-006>008-014>016-023>028-201000-
NORTHWEST WISCONSIN

CITY           SKY/WX    TMP DP  RH WIND       PRES   REMARKS
SUPERIOR ARPT  FAIR      40  38  92 CALM      29.87S
ASHLAND        FAIR      51  40  65 S3        29.91F
HAYWARD        FAIR      56  45  66 S10       29.93F
SIREN          FAIR      55  45  67 S6        29.90F
CUMBERLAND     FAIR      46  37  71 SE5       29.94F
RICE LAKE      FAIR      47  38  70 CALM      29.96F
CHETEK         FAIR      48  39  72 E9        29.96F
LADYSMITH      FAIR      52  38  60 SE5       29.99F
EAU CLAIRE     FAIR      43  38  82 CALM      29.96F
MENOMONIE      FAIR      48  41  77 SE7       29.96F
NEW RICHMOND   FAIR      53  45  75 S7        29.92F
OSCEOLA        FAIR      50  45  81 SE6       29.94F
$$

WIZ003>005-009-010-017-018-201000-
NORTH CENTRAL WISCONSIN

CITY           SKY/WX    TMP DP  RH WIND       PRES   REMARKS
MANITOWISH WTR FAIR      46  40  80 S5        29.98F
ARBOR VITAE    FAIR      52  38  60 S3        30.00S
WOODRUFF       FAIR      52  38  60 S3        30.00S
RHINELANDER    FAIR      54  40  59 SW8       30.01F
EAGLE RIVER    FAIR      53  35  49 SW3       30.00F
LAND O LAKES   FAIR      41  35  77 CALM      30.01F
PHILLIPS       FAIR      49  38  66 S3        29.98F
TOMAHAWK       FAIR      40  36  83 CALM      30.02S
MEDFORD        FAIR      44  37  74 S8        30.00F
MERRILL        FAIR      48  37  65 S3        30.02F
$$

WIZ029-030-035-036-043>047-201000-
CENTRAL WISCONSIN

CITY           SKY/WX    TMP DP  RH WIND       PRES   REMARKS
WAUSAU         FAIR      48  38  68 SE6       30.02S
MOSINEE        FAIR      46  37  71 S9        30.04S
MARSHFIELD     FAIR      46  36  68 S6        30.01F
STEVENS POINT  FAIR      44  36  73 CALM      30.05S
WAUPACA        FAIR      46  38  73 CALM      30.06S
WAUTOMA        FAIR      40  37  89 CALM      30.06F
WISC RAPIDS    FAIR      52  39  61 S6        30.04F
CAMP DOUGLAS   NOT AVBL
$$

WIZ011>013-019>022-031-037>040-048>050-201000-
NORTHEAST WISCONSIN

CITY           SKY/WX    TMP DP  RH WIND       PRES   REMARKS
ANTIGO         FAIR      49  38  66 SW8       30.04F
SHAWANO        FAIR      49  37  62 CALM      30.05F
OCONTO         FAIR      44  37  78 CALM      30.06S
STURGEON BAY   FAIR      51  36  56 S9        30.07F
GREEN BAY      FAIR      47  40  76 S7        30.06F
MANITOWOC      FAIR      52  34  50 S9        30.09F
APPLETON       FAIR      52  36  54 S7        30.05F
CLINTONVILLE   NOT AVBL
OSHKOSH        FAIR      49  40  71 S9        30.06F
$$

WIZ032>034-041-042-053>061-201000-
SOUTHWEST WISCONSIN

CITY           SKY/WX    TMP DP  RH WIND       PRES   REMARKS
LA CROSSE      FAIR      57  48  72 S9        30.00F
SPARTA         FAIR      54  46  74 CALM      30.03S
VIROQUA        FAIR      55  47  76 S7        30.04S
BOSCOBEL       FAIR      43  41  93 CALM      30.06S
PRAIRIE DU CHI FAIR      53  47  79 CALM      30.05S
PLATTEVILLE    FAIR      55  52  88 S9        30.08S
$$

WIZ056-057-062-063-064-067-068-201000-
SOUTH CENTRAL WISCONSIN

CITY           SKY/WX    TMP DP  RH WIND       PRES   REMARKS
REEDSBURG      FAIR      54  43  66 CALM      30.05F
BARABOO/DELLS  FAIR      56  43  62 S6        30.05F
LONE ROCK      NOT AVBL
MINERAL POINT  FAIR      52  45  76 SE7       30.08S
MADISON        FAIR      53  42  66 CALM      30.08F
MIDDLETON      FAIR      54  42  64 S6        30.08F
WATERTOWN      FAIR      51  42  70 CALM      30.09S
MONROE         FAIR      50  43  76 S10       30.09F
JANESVILLE     FAIR      52  41  66 CALM      30.10S
$$

WIZ051-052-058>065-066-070>072-201000-
SOUTHEAST WISCONSIN

CITY           SKY/WX    TMP DP  RH WIND       PRES   REMARKS
MILWAUKEE      FAIR      53  37  54 SW6       30.12S
WAUKESHA       FAIR      50  32  50 S6        30.12S
MILWAUKEE/TIMM FAIR      52  30  43 S6        30.12S
RACINE         FAIR      54  41  61 S6        30.13S
BURLINGTON     FAIR      40  40  99 CALM      30.12S
KENOSHA        FAIR      50  39  66 S5        30.13S
FOND DU LAC    FAIR      55  42  61 S7        30.07F
SHEBOYGAN      FAIR      44  37  76 S5        30.09F
WEST BEND      FAIR      50  34  53 S3        30.10S
JUNEAU         FAIR      50  39  65 S3        30.10S
$$

LSZ147-162-201000-
LAKE SUPERIOR

STATION/POSITION TIME  TEMP    WIND        PRES    WAVE
                       AIR SEA DIR/SP/G            HT/PER
                 (UTC) (F)     (DEG/KT/KT) (MB)    (FT/S)
W MID LAKE BUOY  0750   56 52              1012.6F   1/ 3
DEVILS ISLAND    0800   58     210/  3/  3 1012.4F
SAXON HARBOR     0840   62     190/  9/ 13 1011.9F
$$

LMZ867-665-643>646-201000-
LAKE MICHIGAN

STATION/POSITION TIME  TEMP    WIND        PRES    WAVE
                       AIR SEA DIR/SP/G            HT/PER
                 (UTC) (F)     (DEG/KT/KT) (MB)    (FT/S)
S GREEN BAY BUOY 0800   57 58  200/ 10/ 12 1017.8
N MID LAKE BUOY  0750   59 58  200/ 17/ 21 1018.7S   5/ 6
NORTHPORT PIER   0840   54     150/  6/ 11 1017.6F
KEWAUNEE LAKESHO 0830   53     200/  9/ 11 1017.8F
SHEBOYGAN LAKESH 0800   54     170/  8/  9 1019.4F
PORT WASHINGTON  0840   53     240/  2/  5 1020.3F
MILWAUKEE LAKESH 0830   56     220/  9/ 10   N/A
S MID LAKE BUOY  0750   62 60  140/ 14/ 16 1020.6F   1/ 3
KENOSHA   LAKESH 0800   56     190/  6/  9 1020.0
$$

TC  - TEMPERATURE IN CELSIUS
VSB - VISIBILITY IN STATUTE MILES
WCI - WIND CHILL INDEX
HX  - HEAT INDEX




USA.gov is the U.S. government's official web portal to all federal, state and local government web resources and services.